Location: Hopewell Observatory
(38.8698°N, 77.6988°W)
Time: 08:51:44
(UTC-04:00)

Daily predictions for brighter satellites

Satellite Brightness Start Highest point End
(mag) Time Altitude Azimuth Time Altitude Azimuth Time Altitude Azimuth
IRS-1A Rocket 4.4 18:42:51 10° SSE 18:48:39 72° ENE 18:54:34 10° N
Cosmos 2360 Rocket 2.5 18:47:06 10° N 18:52:32 45° ENE 18:57:56 10° SE
APEX 4.5 18:51:05 10° SSE 18:53:11 16° ESE 18:55:06 10° ENE
COSMOS 2428 3.9 18:51:10 10° N 18:55:35 23° NE 18:59:59 10° ESE
SL-8 Rocket 4.2 18:51:34 10° S 18:57:44 78° W 19:03:59 10° N
Cosmos 2333 Rocket 3.9 18:55:39 10° NNE 18:58:24 13° NE 19:01:09 10° ENE
Cosmos 1833 4.2 18:54:02 10° SSW 18:59:43 73° ESE 19:05:21 10° NNE
Cosmos 2322 Rocket 2.8 18:55:09 10° NNW 19:00:41 62° WSW 19:06:12 10° S
BREEZE-M DEB (TANK) 4.1 18:56:59 10° NW 19:00:59 48° NNE 19:15:22 10° ESE
COSMO-SKYMED 1 2.7 18:57:26 10° NNE 19:01:42 53° E 19:05:56 10° S
Cosmos 2219 4.2 18:58:06 10° SSE 19:02:40 25° ESE 19:07:14 10° NE
Abrixas 3.9 19:07:17 10° S 19:08:30 14° SE 19:09:11 12° ESE
Abrixas rocket 4.4 19:09:51 10° NW 19:12:08 17° N 19:14:27 10° NE
FENGYUN 3A 3.9 19:11:52 10° SE 19:16:58 45° ENE 19:22:05 10° N
Cosmos 1315 Rocket 3.1 19:14:02 10° N 19:18:00 47° ENE 19:21:58 10° SSE
Cosmos 44 3.5 19:14:58 10° S 19:19:03 39° ESE 19:23:05 10° NE
Meteor 2-1 Rocket 4.3 19:15:12 10° S 19:20:57 81° E 19:26:52 10° N
Cosmos 1821 Rocket 4.4 19:15:40 10° SSE 19:21:14 38° E 19:26:54 10° NNE
EO 1 Del DPAF 3.7 19:17:43 10° N 19:21:33 66° WNW 19:25:21 10° SSW
YAOGAN 1 3.2 19:19:19 10° S 19:23:34 60° W 19:27:52 10° NNW
Cosmos 2322 3.7 19:19:39 10° NNW 19:25:23 68° ENE 19:31:02 10° SSE
USA 267 4.1 19:25:18 15° ENE 19:29:43 29° SE 19:35:16 10° S
Cosmos 1269 Rocket 4.3 19:26:23 10° S 19:31:21 45° ESE 19:36:22 10° NNE
Cosmos 2151 3.3 19:27:57 10° NNW 19:32:13 70° W 19:36:26 10° S
SPOT 3 Rocket 3.6 19:28:23 10° SSE 19:33:35 88° W 19:38:49 10° NNW
ERS-2 4.4 19:30:53 10° SSW 19:34:06 28° W 19:37:20 10° NW
DMSP B5D1-3 4.4 19:29:27 10° NNE 19:34:36 73° ESE 19:39:43 10° S
Cosmos 1727 Rocket 4.3 19:28:34 10° N 19:34:55 73° W 19:41:12 10° S
ASTRO E2 4.2 19:36:01 10° WSW 19:39:24 27° S 19:41:35 17° SE
Cosmos 468 4.5 19:34:44 10° SSW 19:39:56 90° ESE 19:45:12 10° NNE
SJ-6B 3.8 19:40:35 25° ENE 19:40:35 25° ENE 19:43:14 10° NNE
GRACE-2 4.5 19:37:46 10° S 19:40:16 53° W 19:42:48 10° N
Aureole 2 4.1 19:37:26 10° NNW 19:40:33 82° ENE 19:44:04 10° SSE
RESURS DK-1 2.7 19:36:42 10° NNW 19:40:48 68° WSW 19:44:53 10° SSE
Cosmos 2219 Rocket 2.9 19:36:10 10° N 19:41:07 31° ENE 19:43:16 24° E
FREGAT/IRIS 3.7 19:42:27 28° NE 19:42:27 28° NE 19:44:24 10° N
Cosmos 44 Rocket 3.1 19:37:54 10° SSW 19:42:34 70° ESE 19:46:44 13° NE
GP-B 4.5 19:38:31 10° NNW 19:42:42 42° W 19:46:53 10° SSW
Meteor 2-10 4.4 19:41:25 10° SSE 19:45:57 35° E 19:50:33 10° NNE
Cosmos 1726 2.1 19:44:20 10° S 19:47:56 53° E 19:51:34 10° NNE
Cosmos 2098 Rocket 3.2 19:44:21 10° S 19:48:34 64° E 19:54:01 10° NNE
Cosmos 1452 Rocket 3.8 19:43:29 10° NNW 19:48:43 70° WSW 19:53:56 10° S
Cosmos 2058 4.3 19:46:15 10° NNW 19:50:11 41° W 19:54:05 10° SSW
Atlas Centaur 2 3.4 19:47:37 10° WSW 19:51:38 27° S 19:54:54 16° SE
Cosmos 2123 Rocket 4.4 19:46:01 10° N 19:51:51 40° ENE 19:57:42 10° SE
BREEZE-M DEB (TANK) 3.0 19:52:18 10° W 19:54:00 24° SW 19:54:38 21° S
Delta 2 Rocket 3.3 19:51:51 10° WSW 19:55:28 50° S 19:56:09 42° SE
Cosmos 1605 Rocket 4.4 19:50:04 10° SSE 19:55:31 35° E 20:00:58 10° NNE
Gbstr 26 Del rocket 4.1 19:51:08 10° NW 19:56:03 44° NNE 19:58:17 31° E
Cosmos 2221 2.9 19:54:29 10° SSW 19:58:44 64° W 20:03:04 10° N
Aureole 2 Rocket 3.4 19:55:08 10° N 19:58:13 36° NE 19:58:13 36° NE
Cosmos 1908 4.5 19:57:05 10° SSW 20:00:48 43° W 20:04:34 10° N
Cosmos 2333 4.1 19:55:22 10° NNW 20:01:06 70° ENE 20:05:29 18° SSE
Cosmos 2237 4.4 19:58:04 10° NNW 20:03:47 72° WSW 20:09:28 10° SSE
CZ-4C R/B 2.0 19:58:52 10° SSW 20:03:59 84° ESE 20:08:29 17° NE
BREEZE-M DEB (TANK) 4.4 20:06:20 10° NW 20:07:10 13° NNW 20:07:10 13° NNW
Cosmos 921 Rocket 4.2 20:03:59 10° NNW 20:08:12 44° W 20:12:19 10° S
H-2A R/B 2.6 20:07:32 35° SSE 20:09:05 81° ENE 20:13:01 10° N
Iridium 4 Rocket 4.0 20:05:33 10° S 20:10:59 68° W 20:16:50 10° N
BREEZE-M R/B 4.0 20:09:41 10° SSW 20:10:42 21° SSW 20:10:42 21° SSW
Cosmos 2237 Rocket 3.1 20:08:47 10° N 20:13:12 31° NE 20:13:12 31° NE
In-Cosmos 22 Rocket 4.4 20:08:25 10° N 20:14:00 51° ENE 20:15:17 43° ESE
DELTA 2 R/B (1) 3.8 20:11:57 10° W 20:17:29 64° SSW 20:19:09 43° SE
Cosmos 2227 Rocket 3.3 20:14:42 10° S 20:17:28 26° SSE 20:17:28 26° SSE
Resurs 01 Rocket 3.6 20:23:46 18° NNE 20:23:46 18° NNE 20:24:59 10° N
SL-16 R/B 4.2 20:20:21 10° NNE 20:21:48 14° NNE 20:21:48 14° NNE
ALOS 3.8 20:19:47 10° SSW 20:24:05 36° W 20:28:23 10° NNW
Cosmos 1300 4.1 20:29:15 10° SSW 20:31:27 32° SSW 20:31:27 32° SSW
Envisat 4.2 20:35:33 28° NNE 20:35:33 28° NNE 20:38:08 10° N
Cosmos 2360 Rocket 4.4 20:31:48 10° NW 20:36:11 24° W 20:40:34 10° SSW
Meteor 2-2 Rocket 4.1 20:31:38 10° S 20:37:21 83° E 20:43:01 10° N
Cosmos 1980 4.2 20:32:03 10° NNW 20:36:26 44° NNE 20:36:26 44° NNE
NOSS 0 Rocket 3.8 20:31:30 10° NNW 20:37:39 68° ENE 20:37:56 67° E
COSMOS 2428 3.4 20:34:38 10° NNW 20:40:09 52° WSW 20:44:03 19° S
Cosmos 2333 Rocket 2.1 20:37:46 10° NNW 20:43:33 84° ENE 20:43:38 84° E
Sich 1 3.7 20:40:15 10° NNW 20:44:31 54° W 20:44:35 54° W
Cosmos 2219 4.3 20:41:02 10° SW 20:46:30 44° WNW 20:51:59 10° N
BREEZE-M DEB (TANK) 3.9 20:45:53 10° WNW 20:52:04 37° NNW 20:52:04 37° NNW
Cosmos 2297 Rocket 4.3 20:51:59 10° SSW 20:52:50 15° S 20:52:50 15° S
Centaur D AC-29 3.5 20:55:44 10° WSW 20:59:12 17° SSW 20:59:12 17° SSW
USA 267 3.3 21:12:42 71° NNW 21:13:02 72° NW 21:19:31 10° WSW
MOS 1-B Rocket 4.4 21:16:00 54° W 21:16:00 54° W 21:21:50 10° NNW
Cosmos 2219 Rocket 3.5 21:20:01 10° NW 21:25:02 35° WSW 21:25:02 35° WSW
CZ-4C R/B 4.5 21:49:34 10° W 21:53:23 19° NW 21:53:44 19° NNW
Cosmos 2237 Rocket 4.3 21:52:44 10° NW 21:55:03 22° NW 21:55:03 22° NW
